| time (UTC) | temp C | wind direction | speed KPH | gust KPH | rain 1hr cm | rain 24hr cm | rain mn cm | humidity % | barometer mb |
| 20260503034756 | 4 | 230 | 0.0 | 6.4 | 0.00 | 0.00 | 0.00 | 93 | 1019.8 |
| 20260503034255 | 4 | 45 | 1.6 | 6.4 | 0.00 | 0.00 | 0.00 | 93 | 1019.8 |
| 20260503033757 | 3 | 123 | 3.2 | 8.0 | 0.00 | 0.00 | 0.00 | 93 | 1019.8 |
| 20260503033256 | 3 | 115 | 4.8 | 8.0 | 0.00 | 0.00 | 0.00 | 92 | 1020.0 |
| 20260503032756 | 4 | 174 | 4.8 | 6.4 | 0.00 | 0.00 | 0.00 | 92 | 1019.6 |
| 20260503032256 | 4 | 113 | 4.8 | 9.7 | 0.00 | 0.00 | 0.00 | 93 | 1019.9 |
| 20260503031757 | 4 | 157 | 0.0 | 9.7 | 0.00 | 0.00 | 0.00 | 93 | 1019.9 |
| 20260503031255 | 4 | 148 | 6.4 | 8.0 | 0.00 | 0.00 | 0.00 | 93 | 1019.8 |
| 20260503030757 | 4 | 273 | 3.2 | 8.0 | 0.00 | 0.00 | 0.00 | 93 | 1019.7 |
| 20260503030255 | 4 | 66 | 4.8 | 8.0 | 0.00 | 0.00 | 0.00 | 93 | 1019.8 |
| 20260503025757 | 4 | 43 | 1.6 | 8.0 | 0.00 | 0.00 | 0.00 | 93 | 1019.6 |
| 20260503025559 | 4 | 135 | 3.2 | 6.4 | 0.00 | 0.00 | 0.00 | 92 | 1019.6 |
| 20260503025552 | 4 | 68 | 1.6 | 6.4 | 0.00 | 0.00 | 0.00 | 93 | 1019.8 |
| 20260503024324 | 5 | 196 | 4.8 | 6.4 | 0.00 | 0.00 | 0.00 | 92 | 1019.8 |
| 20260503024311 | 5 | 207 | 3.2 | 6.4 | 0.00 | 0.00 | 0.00 | 92 | 1019.5 |
| 20260503023538 | 5 | 112 | 1.6 | 6.4 | 0.00 | 0.00 | 0.00 | 92 | 1019.6 |
| 20260503022756 | 5 | 126 | 0.0 | 6.4 | 0.00 | 0.00 | 0.00 | 92 | 1019.7 |
| 20260503022537 | 5 | 142 | 6.4 | 6.4 | 0.00 | 0.00 | 0.00 | 92 | 1019.7 |
| 20260503021757 | 5 | 120 | 4.8 | 4.8 | 0.00 | 0.00 | 0.00 | 91 | 1019.7 |
| 20260503021256 | 5 | 141 | 3.2 | 4.8 | 0.00 | 0.00 | 0.00 | 91 | 1019.4 |
| 20260503020823 | 5 | 122 | 0.0 | 4.8 | 0.00 | 0.00 | 0.00 | 90 | 1019.5 |
| 20260503020814 | 5 | 144 | 3.2 | 4.8 | 0.00 | 0.00 | 0.00 | 91 | 1019.6 |
| 20260503015757 | 5 | 136 | 1.6 | 4.8 | 0.00 | 0.00 | 0.00 | 90 | 1019.7 |
| 20260503015256 | 5 | 151 | 1.6 | 4.8 | 0.00 | 0.00 | 0.00 | 89 | 1019.6 |
| 20260503014757 | 6 | 139 | 3.2 | 4.8 | 0.00 | 0.00 | 0.00 | 89 | 1019.5 |
| 20260503014539 | 6 | 165 | 0.0 | 4.8 | 0.00 | 0.00 | 0.00 | 89 | 1019.7 |
| 20260503013757 | 6 | 190 | 1.6 | 3.2 | 0.00 | 0.00 | 0.00 | 88 | 1019.6 |
| 20260503013256 | 6 | 73 | 0.0 | 3.2 | 0.00 | 0.00 | 0.00 | 88 | 1019.3 |
| 20260503013036 | 6 | 127 | 3.2 | 4.8 | 0.00 | 0.00 | 0.00 | 87 | 1019.3 |
| 20260503012256 | 6 | 117 | 1.6 | 4.8 | 0.00 | 0.00 | 0.00 | 87 | 1019.1 |
| 20260503011757 | 6 | 143 | 0.0 | 4.8 | 0.00 | 0.00 | 0.00 | 87 | 1019.1 |
| 20260503011256 | 6 | 164 | 1.6 | 4.8 | 0.00 | 0.00 | 0.00 | 87 | 1019.4 |
| 20260503010756 | 6 | 160 | 0.0 | 4.8 | 0.00 | 0.00 | 0.00 | 87 | 1019.3 |
| 20260503010255 | 6 | 275 | 3.2 | 3.2 | 0.00 | 0.00 | 0.00 | 87 | 1019.3 |
| 20260503010037 | 6 | 238 | 0.0 | 4.8 | 0.00 | 0.00 | 0.00 | 87 | 1019.5 |
| 20260503005255 | 7 | 212 | 0.0 | 4.8 | 0.00 | 0.00 | 0.00 | 86 | 1019.3 |
| 20260503004757 | 7 | 72 | 0.0 | 3.2 | 0.00 | 0.00 | 0.00 | 87 | 1019.5 |
| 20260503004255 | 7 | 131 | 1.6 | 4.8 | 0.00 | 0.00 | 0.00 | 86 | 1019.3 |
| 20260503004036 | 7 | 84 | 0.0 | 4.8 | 0.00 | 0.00 | 0.00 | 86 | 1019.1 |
| 20260503003536 | 7 | 119 | 0.0 | 4.8 | 0.00 | 0.00 | 0.00 | 85 | 1019.1 |
| 20260503002757 | 7 | 98 | 1.6 | 4.8 | 0.00 | 0.00 | 0.00 | 84 | 1019.4 |
| 20260503002256 | 7 | 150 | 0.0 | 4.8 | 0.00 | 0.00 | 0.00 | 84 | 1019.4 |
| 20260503002037 | 7 | 168 | 1.6 | 6.4 | 0.00 | 0.00 | 0.00 | 85 | 1019.5 |
| 20260503001256 | 7 | 144 | 3.2 | 6.4 | 0.00 | 0.00 | 0.00 | 85 | 1019.5 |
| 20260503001147 | 7 | 139 | 4.8 | 4.8 | 0.00 | 0.00 | 0.00 | 84 | 1019.4 |
| 20260503001141 | 7 | 139 | 1.6 | 4.8 | 0.00 | 0.00 | 0.00 | 83 | 1019.8 |
| 20260503001137 | 7 | 214 | 0.0 | 4.8 | 0.00 | 0.00 | 0.00 | 85 | 1019.4 |
| 20260502235257 | 7 | 131 | 3.2 | 4.8 | 0.00 | 0.00 | 0.00 | 82 | 1019.5 |
| 20260502234757 | 7 | 298 | 0.0 | 3.2 | 0.00 | 0.00 | 0.00 | 82 | 1019.6 |
| 20260502234256 | 8 | 166 | 3.2 | 3.2 | 0.00 | 0.00 | 0.00 | 82 | 1019.7 |
| 20260502233757 | 8 | 221 | 0.0 | 4.8 | 0.00 | 0.00 | 0.00 | 81 | 1019.7 |
| 20260502233256 | 8 | 0 | 0.0 | 4.8 | 0.00 | 0.00 | 0.00 | 82 | 1019.6 |
| 20260502232756 | 8 | 57 | 1.6 | 4.8 | 0.00 | 0.00 | 0.00 | 82 | 1019.6 |
| 20260502232256 | 8 | 148 | 0.0 | 6.4 | 0.00 | 0.00 | 0.00 | 81 | 1019.6 |
| 20260502231757 | 8 | 333 | 0.0 | 6.4 | 0.00 | 0.00 | 0.00 | 81 | 1019.5 |
| 20260502231541 | 8 | 144 | 3.2 | 6.4 | 0.00 | 0.00 | 0.00 | 82 | 1019.7 |
| 20260502230757 | 8 | 227 | 3.2 | 6.4 | 0.00 | 0.00 | 0.00 | 82 | 1019.8 |
| 20260502230256 | 7 | 171 | 1.6 | 4.8 | 0.00 | 0.00 | 0.00 | 84 | 1019.7 |
| 20260502225757 | 7 | 144 | 1.6 | 4.8 | 0.00 | 0.00 | 0.00 | 83 | 1019.7 |
| 20260502225256 | 8 | 117 | 1.6 | 3.2 | 0.00 | 0.00 | 0.00 | 82 | 1019.7 |
| 20260502224756 | 7 | 37 | 0.0 | 4.8 | 0.00 | 0.00 | 0.00 | 84 | 1019.7 |
| 20260502224259 | 7 | 130 | 0.0 | 4.8 | 0.00 | 0.00 | 0.00 | 84 | 1019.8 |
| 20260502224037 | 7 | 128 | 3.2 | 3.2 | 0.00 | 0.00 | 0.00 | 83 | 1019.8 |
| 20260502223255 | 7 | 142 | 1.6 | 4.8 | 0.00 | 0.00 | 0.00 | 82 | 1019.9 |
| 20260502222758 | 8 | 132 | 1.6 | 4.8 | 0.00 | 0.00 | 0.00 | 82 | 1019.7 |
| 20260502222257 | 8 | 118 | 1.6 | 3.2 | 0.00 | 0.00 | 0.00 | 81 | 1020.0 |
| 20260502221757 | 8 | 222 | 1.6 | 3.2 | 0.00 | 0.00 | 0.00 | 81 | 1020.1 |
| 20260502221256 | 8 | 212 | 0.0 | 3.2 | 0.00 | 0.00 | 0.00 | 81 | 1020.1 |
| 20260502220756 | 8 | 114 | 0.0 | 3.2 | 0.00 | 0.00 | 0.00 | 82 | 1020.0 |
| 20260502220536 | 8 | 135 | 1.6 | 3.2 | 0.00 | 0.00 | 0.00 | 81 | 1020.0 |
| 20260502215757 | 8 | 152 | 1.6 | 3.2 | 0.00 | 0.00 | 0.00 | 80 | 1020.0 |
| 20260502215256 | 8 | 136 | 0.0 | 3.2 | 0.00 | 0.00 | 0.00 | 80 | 1019.9 |
| 20260502214757 | 8 | 324 | 0.0 | 3.2 | 0.00 | 0.00 | 0.00 | 79 | 1019.9 |
| 20260502214535 | 9 | 217 | 0.0 | 1.6 | 0.00 | 0.00 | 0.00 | 79 | 1019.8 |
| 20260502214035 | 8 | 103 | 0.0 | 3.2 | 0.00 | 0.00 | 0.00 | 80 | 1019.9 |
| 20260502213325 | 9 | 110 | 3.2 | 3.2 | 0.00 | 0.00 | 0.00 | 78 | 1019.9 |
| 20260502213314 | 8 | 122 | 0.0 | 3.2 | 0.00 | 0.00 | 0.00 | 79 | 1020.0 |
| 20260502212256 | 9 | 135 | 1.6 | 3.2 | 0.00 | 0.00 | 0.00 | 76 | 1019.9 |
| 20260502212038 | 10 | 154 | 0.0 | 1.6 | 0.00 | 0.00 | 0.00 | 75 | 1020.0 |
| 20260502211256 | 10 | 142 | 0.0 | 3.2 | 0.00 | 0.00 | 0.00 | 77 | 1020.0 |
| 20260502210757 | 10 | 95 | 0.0 | 3.2 | 0.00 | 0.00 | 0.00 | 76 | 1020.1 |
| 20260502210536 | 10 | 119 | 0.0 | 3.2 | 0.00 | 0.00 | 0.00 | 76 | 1020.2 |
| 20260502205757 | 10 | 333 | 0.0 | 1.6 | 0.00 | 0.00 | 0.00 | 74 | 1020.2 |
| 20260502205257 | 10 | 212 | 0.0 | 1.6 | 0.00 | 0.00 | 0.00 | 72 | 1020.2 |
| 20260502204757 | 10 | 130 | 0.0 | 1.6 | 0.00 | 0.00 | 0.00 | 71 | 1020.0 |
| 20260502204256 | 11 | 162 | 1.6 | 1.6 | 0.00 | 0.00 | 0.00 | 70 | 1020.2 |
| 20260502203758 | 11 | 154 | 0.0 | 3.2 | 0.00 | 0.00 | 0.00 | 71 | 1020.2 |
| 20260502203535 | 11 | 149 | 0.0 | 3.2 | 0.00 | 0.00 | 0.00 | 70 | 1020.4 |
| 20260502202759 | 11 | 135 | 0.0 | 1.6 | 0.00 | 0.00 | 0.00 | 69 | 1020.3 |
| 20260502202256 | 11 | 145 | 0.0 | 1.6 | 0.00 | 0.00 | 0.00 | 70 | 1020.3 |
| 20260502201757 | 11 | 217 | 0.0 | 1.6 | 0.00 | 0.00 | 0.00 | 68 | 1020.3 |
| 20260502201255 | 11 | 184 | 0.0 | 1.6 | 0.00 | 0.00 | 0.00 | 67 | 1020.3 |
| 20260502200757 | 11 | 212 | 0.0 | 1.6 | 0.00 | 0.00 | 0.00 | 67 | 1020.3 |
| 20260502200536 | 11 | 142 | 0.0 | 3.2 | 0.00 | 0.00 | 0.00 | 67 | 1020.3 |
| 20260502200036 | 12 | 130 | 0.0 | 3.2 | 0.00 | 0.00 | 0.00 | 66 | 1020.1 |
| 20260502195256 | 12 | 121 | 0.0 | 1.6 | 0.00 | 0.00 | 0.00 | 67 | 1020.3 |
| 20260502194756 | 12 | 147 | 0.0 | 3.2 | 0.00 | 0.00 | 0.00 | 68 | 1020.3 |
| 20260502194256 | 12 | 142 | 0.0 | 3.2 | 0.00 | 0.00 | 0.00 | 65 | 1020.2 |
| 20260502193757 | 12 | 135 | 0.0 | 3.2 | 0.00 | 0.00 | 0.00 | 63 | 1020.4 |
| 20260502193255 | 13 | 144 | 0.0 | 3.2 | 0.00 | 0.00 | 0.00 | 61 | 1020.2 |
| 20260502192823 | 13 | 135 | 0.0 | 3.2 | 0.00 | 0.00 | 0.00 | 60 | 1020.0 |
| 20260502192813 | 13 | 166 | 0.0 | 3.2 | 0.00 | 0.00 | 0.00 | 60 | 1020.0 |
| 20260502191825 | 14 | 136 | 1.6 | 3.2 | 0.00 | 0.00 | 0.00 | 57 | 1020.0 |
| 20260502191814 | 13 | 136 | 0.0 | 3.2 | 0.00 | 0.00 | 0.00 | 58 | 1020.1 |
| 20260502190756 | 14 | 124 | 0.0 | 3.2 | 0.00 | 0.00 | 0.00 | 56 | 1020.0 |
| 20260502190255 | 15 | 246 | 0.0 | 1.6 | 0.00 | 0.00 | 0.00 | 55 | 1020.0 |
| 20260502190038 | 15 | 164 | 0.0 | 3.2 | 0.00 | 0.00 | 0.00 | 54 | 1019.9 |
| 20260502185257 | 15 | 162 | 1.6 | 3.2 | 0.00 | 0.00 | 0.00 | 52 | 1019.9 |
| 20260502184757 | 15 | 241 | 0.0 | 3.2 | 0.00 | 0.00 | 0.00 | 51 | 1019.9 |
| 20260502184353 | 16 | 156 | 0.0 | 1.6 | 0.00 | 0.00 | 0.00 | 51 | 1019.9 |
| 20260502184348 | 17 | 195 | 0.0 | 1.6 | 0.00 | 0.00 | 0.00 | 50 | 1019.8 |
| 20260502184333 | 16 | 218 | 0.0 | 3.2 | 0.00 | 0.00 | 0.00 | 53 | 1019.8 |
| 20260502182758 | 17 | 224 | 0.0 | 3.2 | 0.00 | 0.00 | 0.00 | 49 | 1019.7 |
| 20260502182537 | 17 | 197 | 0.0 | 3.2 | 0.00 | 0.00 | 0.00 | 48 | 1019.6 |
| 20260502181757 | 18 | 166 | 0.0 | 0.0 | 0.00 | 0.00 | 0.00 | 45 | 1019.7 |
| 20260502181256 | 18 | 176 | 0.0 | 0.0 | 0.00 | 0.00 | 0.00 | 41 | 1019.6 |
| 20260502180759 | 19 | 173 | 0.0 | 4.8 | 0.00 | 0.00 | 0.00 | 38 | 1019.7 |
| 20260502180258 | 20 | 173 | 0.0 | 4.8 | 0.00 | 0.00 | 0.00 | 36 | 1019.6 |
| 20260502170258 | 22 | 139 | 8.0 | 9.7 | 0.00 | 0.00 | 0.00 | 29 | 1019.5 |
| 20260502163757 | 23 | 110 | 9.7 | 12.9 | 0.00 | 0.00 | 0.00 | 29 | 1019.8 |
| 20260502163301 | 23 | 154 | 8.0 | 12.9 | 0.00 | 0.00 | 0.00 | 28 | 1019.9 |
| 20260502162758 | 23 | 121 | 3.2 | 9.7 | 0.00 | 0.00 | 0.00 | 29 | 1019.8 |
| 20260502162259 | 23 | 143 | 1.6 | 9.7 | 0.00 | 0.00 | 0.00 | 28 | 1019.8 |
| 20260502161757 | 23 | 136 | 1.6 | 11.3 | 0.00 | 0.00 | 0.00 | 28 | 1019.9 |
| 20260502161537 | 23 | 163 | 6.4 | 11.3 | 0.00 | 0.00 | 0.00 | 28 | 1019.9 |
| 20260502160757 | 23 | 161 | 4.8 | 14.5 | 0.00 | 0.00 | 0.00 | 29 | 1020.1 |
| 20260502160258 | 23 | 129 | 4.8 | 14.5 | 0.00 | 0.00 | 0.00 | 29 | 1020.2 |
| 20260502152049 | 23 | 121 | 11.3 | 19.3 | 0.00 | 0.00 | 0.00 | 28 | 1020.5 |
| 20260502151259 | 23 | 124 | 4.8 | 12.9 | 0.00 | 0.00 | 0.00 | 29 | 1020.7 |
| 20260502151038 | 24 | 92 | 3.2 | 12.9 | 0.00 | 0.00 | 0.00 | 29 | 1020.6 |
| 20260502150537 | 24 | 228 | 0.0 | 8.0 | 0.00 | 0.00 | 0.00 | 29 | 1020.7 |
| 20260502130733 | 24 | 208 | 1.6 | 8.0 | 0.00 | 0.00 | 0.00 | 30 | 1021.6 |
| 20260502130234 | 25 | 192 | 1.6 | 6.4 | 0.00 | 0.00 | 0.00 | 30 | 1021.8 |
| 20260502130104 | 23 | 219 | 3.2 | 9.7 | 0.00 | 0.00 | 0.00 | 30 | 1021.9 |
| 20260502123733 | 23 | 144 | 4.8 | 9.7 | 0.00 | 0.00 | 0.00 | 31 | 1022.3 |
| 20260502123234 | 24 | 183 | 6.4 | 9.7 | 0.00 | 0.00 | 0.00 | 29 | 1022.1 |
| 20260502122733 | 23 | 150 | 0.0 | 4.8 | 0.00 | 0.00 | 0.00 | 30 | 1022.4 |
| 20260502122233 | 23 | 179 | 1.6 | 9.7 | 0.00 | 0.00 | 0.00 | 31 | 1022.4 |
| 20260502121731 | 22 | 297 | 0.0 | 9.7 | 0.00 | 0.00 | 0.00 | 32 | 1022.2 |
| 20260502121508 | 23 | 349 | 4.8 | 9.7 | 0.00 | 0.00 | 0.00 | 32 | 1022.3 |
| 20260502120732 | 22 | 186 | 0.0 | 9.7 | 0.00 | 0.00 | 0.00 | 32 | 1022.3 |
| 20260502120234 | 23 | 306 | 9.7 | 9.7 | 0.00 | 0.00 | 0.00 | 32 | 1022.4 |
| 20260502115733 | 23 | 151 | 3.2 | 6.4 | 0.00 | 0.00 | 0.00 | 32 | 1022.5 |
| 20260502115234 | 23 | 315 | 0.0 | 8.0 | 0.00 | 0.00 | 0.00 | 33 | 1022.5 |
| 20260502114731 | 23 | 225 | 0.0 | 8.0 | 0.00 | 0.00 | 0.00 | 33 | 1022.6 |
| 20260502114234 | 23 | 338 | 3.2 | 9.7 | 0.00 | 0.00 | 0.00 | 32 | 1022.6 |
| 20260502114016 | 23 | 121 | 0.0 | 9.7 | 0.00 | 0.00 | 0.00 | 32 | 1022.9 |
| 20260502113510 | 23 | 133 | 4.8 | 8.0 | 0.00 | 0.00 | 0.00 | 32 | 1023.0 |
| 20260502113012 | 22 | 157 | 0.0 | 12.9 | 0.00 | 0.00 | 0.00 | 33 | 1023.0 |
| 20260502112234 | 22 | 156 | 3.2 | 12.9 | 0.00 | 0.00 | 0.00 | 33 | 1023.3 |
| 20260502112038 | 22 | 101 | 3.2 | 16.1 | 0.00 | 0.00 | 0.00 | 32 | 1023.2 |
| 20260502111748 | 22 | 123 | 6.4 | 16.1 | 0.00 | 0.00 | 0.00 | 32 | 1023.0 |
| 20260502110732 | 22 | 53 | 0.0 | 14.5 | 0.00 | 0.00 | 0.00 | 33 | 1023.0 |
| 20260502110234 | 22 | 145 | 6.4 | 17.7 | 0.00 | 0.00 | 0.00 | 33 | 1023.3 |
| 20260502110013 | 22 | 144 | 6.4 | 17.7 | 0.00 | 0.00 | 0.00 | 32 | 1023.4 |
| 20260502105235 | 23 | 139 | 6.4 | 9.7 | 0.00 | 0.00 | 0.00 | 33 | 1023.4 |
| 20260502104733 | 23 | 287 | 9.7 | 9.7 | 0.00 | 0.00 | 0.00 | 32 | 1023.3 |
| 20260502104511 | 22 | 232 | 1.6 | 11.3 | 0.00 | 0.00 | 0.00 | 34 | 1023.6 |
| 20260502103718 | 22 | 133 | 1.6 | 11.3 | 0.00 | 0.00 | 0.00 | 34 | 1023.9 |
| 20260502103220 | 21 | 120 | 6.4 | 11.3 | 0.00 | 0.00 | 0.00 | 34 | 1023.8 |
| 20260502102719 | 21 | 326 | 3.2 | 11.3 | 0.00 | 0.00 | 0.00 | 34 | 1024.1 |
| 20260502102219 | 22 | 122 | 4.8 | 8.0 | 0.00 | 0.00 | 0.00 | 34 | 1023.9 |
| 20260502101719 | 22 | 218 | 1.6 | 6.4 | 0.00 | 0.00 | 0.00 | 34 | 1024.2 |
| 20260502101459 | 22 | 230 | 3.2 | 6.4 | 0.00 | 0.00 | 0.00 | 33 | 1024.2 |
| 20260502100959 | 22 | 310 | 0.0 | 6.4 | 0.00 | 0.00 | 0.00 | 35 | 1024.3 |
| 20260502100219 | 21 | 176 | 1.6 | 6.4 | 0.00 | 0.00 | 0.00 | 35 | 1024.4 |
| 20260502091459 | 21 | 299 | 0.0 | 9.7 | 0.00 | 0.00 | 0.00 | 36 | 1024.5 |
| 20260502090719 | 22 | 167 | 1.6 | 6.4 | 0.00 | 0.00 | 0.00 | 36 | 1025.0 |
| 20260502090221 | 21 | 338 | 0.0 | 8.0 | 0.00 | 0.00 | 0.00 | 37 | 1025.0 |
| 20260502071218 | 17 | 110 | 0.0 | 3.2 | 0.00 | 0.00 | 0.00 | 50 | 1025.5 |
| 20260502070717 | 16 | 158 | 0.0 | 3.2 | 0.00 | 0.00 | 0.00 | 53 | 1025.5 |
| 20260502070457 | 16 | 341 | 0.0 | 4.8 | 0.00 | 0.00 | 0.00 | 54 | 1025.5 |
| 20260502065717 | 15 | 11 | 0.0 | 4.8 | 0.00 | 0.00 | 0.00 | 57 | 1025.5 |
| 20260502065219 | 14 | 342 | 3.2 | 4.8 | 0.00 | 0.00 | 0.00 | 59 | 1025.5 |
| 20260502064717 | 14 | 322 | 3.2 | 4.8 | 0.00 | 0.00 | 0.00 | 60 | 1025.8 |
| 20260502064221 | 13 | 267 | 0.0 | 4.8 | 0.00 | 0.00 | 0.00 | 60 | 1025.7 |
| 20260502063717 | 13 | 333 | 0.0 | 6.4 | 0.00 | 0.00 | 0.00 | 62 | 1025.7 |
| 20260502063457 | 12 | 301 | 3.2 | 9.7 | 0.00 | 0.00 | 0.00 | 64 | 1025.7 |
| 20260502062718 | 12 | 339 | 4.8 | 9.7 | 0.00 | 0.00 | 0.00 | 65 | 1025.8 |
| 20260502062222 | 12 | 339 | 3.2 | 6.4 | 0.00 | 0.00 | 0.00 | 65 | 1025.8 |
| 20260502061717 | 11 | 343 | 3.2 | 8.0 | 0.00 | 0.00 | 0.00 | 66 | 1025.9 |
| 20260502061221 | 11 | 323 | 4.8 | 8.0 | 0.00 | 0.00 | 0.00 | 67 | 1026.1 |
| 20260502060721 | 11 | 359 | 1.6 | 6.4 | 0.00 | 0.00 | 0.00 | 67 | 1025.8 |
| 20260502060220 | 11 | 114 | 0.0 | 6.4 | 0.00 | 0.00 | 0.00 | 68 | 1026.0 |
| 20260502055716 | 11 | 324 | 3.2 | 8.0 | 0.00 | 0.00 | 0.00 | 68 | 1025.9 |
| 20260502055220 | 11 | 79 | 0.0 | 8.0 | 0.00 | 0.00 | 0.00 | 68 | 1026.0 |
| 20260502054705 | 10 | 229 | 0.0 | 9.7 | 0.00 | 0.00 | 0.00 | 70 | 1026.0 |
| 20260502054205 | 10 | 290 | 1.6 | 9.7 | 0.00 | 0.00 | 0.00 | 70 | 1026.1 |
| 20260502053707 | 10 | 102 | 3.2 | 14.5 | 0.00 | 0.00 | 0.00 | 72 | 1025.9 |
| 20260502053205 | 8 | 331 | 3.2 | 14.5 | 0.00 | 0.00 | 0.00 | 73 | 1026.0 |
| 20260502052706 | 8 | 355 | 6.4 | 9.7 | 0.00 | 0.00 | 0.00 | 74 | 1026.1 |
| 20260502052230 | 8 | 310 | 3.2 | 9.7 | 0.00 | 0.00 | 0.00 | 75 | 1026.0 |
| 20260502052219 | 8 | 321 | 6.4 | 8.0 | 0.00 | 0.00 | 0.00 | 74 | 1025.9 |
| 20260502051447 | 8 | 61 | 3.2 | 9.7 | 0.00 | 0.00 | 0.00 | 77 | 1026.0 |
| 20260502050705 | 8 | 340 | 3.2 | 6.4 | 0.00 | 0.00 | 0.00 | 76 | 1026.0 |
| 20260502050205 | 8 | 167 | 4.8 | 6.4 | 0.00 | 0.00 | 0.00 | 77 | 1025.9 |
| 20260502045705 | 8 | 53 | 6.4 | 6.4 | 0.00 | 0.00 | 0.00 | 77 | 1026.0 |
| 20260502045204 | 7 | 41 | 3.2 | 8.0 | 0.00 | 0.00 | 0.00 | 79 | 1025.7 |
| 20260502044705 | 7 | 6 | 4.8 | 8.0 | 0.00 | 0.00 | 0.00 | 80 | 1026.0 |
| 20260502044205 | 7 | 47 | 4.8 | 8.0 | 0.00 | 0.00 | 0.00 | 81 | 1025.9 |
| 20260502043705 | 6 | 294 | 3.2 | 8.0 | 0.00 | 0.00 | 0.00 | 82 | 1025.8 |
| 20260502043445 | 6 | 2 | 4.8 | 9.7 | 0.00 | 0.00 | 0.00 | 83 | 1026.0 |
| 20260502042704 | 6 | 343 | 1.6 | 9.7 | 0.00 | 0.00 | 0.00 | 85 | 1025.6 |
| 20260502042205 | 6 | 290 | 3.2 | 8.0 | 0.00 | 0.00 | 0.00 | 86 | 1025.7 |
| 20260502041705 | 5 | 314 | 1.6 | 4.8 | 0.00 | 0.00 | 0.00 | 88 | 1025.9 |
| 20260502041204 | 5 | 358 | 1.6 | 4.8 | 0.00 | 0.00 | 0.00 | 90 | 1025.9 |
| 20260502040705 | 5 | 33 | 3.2 | 4.8 | 0.00 | 0.00 | 0.00 | 91 | 1025.9 |
| 20260502040205 | 5 | 73 | 0.0 | 6.4 | 0.00 | 0.00 | 0.00 | 92 | 1025.6 |
| 20260502035705 | 5 | 51 | 3.2 | 6.4 | 0.00 | 0.00 | 0.00 | 92 | 1025.7 |
| 20260502035206 | 4 | 55 | 1.6 | 8.0 | 0.00 | 0.00 | 0.00 | 92 | 1025.7 |